Weather History for Gainesville, GA

Change the Weather History Date:

Friday, October 5, 2012

  Actual Average Record
Temperature  
Mean Temperature 66 °F 65 °F  
Max Temperature 79 °F 75 °F 96 °F (1954)
Min Temperature 55 °F 55 °F 36 °F (1968)
Degree Days  
Heating Degree Days 0 2  
Month to date heating degree days 10  
Since 1 July heating degree days 23  
Cooling Degree Days 2 2  
Month to date cooling degree days 13  
Year to date cooling degree days 1554  
Growing Degree Days 16 (Base 50)    
Moisture  
Dew Point 55 °F    
Average Humidity 68    
Maximum Humidity 93    
Minimum Humidity 37    
Precipitation  
Precipitation 0.00 in 0.17 in 1.70 in (1964)
Month to date precipitation 0.88  
Year to date precipitation 41.81  
Sea Level Pressure  
Sea Level Pressure 30.13 in    
Wind  
Wind Speed 3 mph (NW)    
Max Wind Speed 7 mph    
Max Gust Speed -    
Visibility 10 miles    
Events      
T = Trace of Precipitation, MM = Missing Value Source: NWS Daily Summary

Daily Weather History Graph

Daily Weather History Graph

Search for Another Location

Airport:

Trip Planner

Search our weather history database for the weather conditions in past years. The results will help you decide how hot, cold, wet, or windy it might be!

Date:

Astronomy

Oct. 05, 2012 Rise Set
Actual Time 7:33 AM EDT 7:13 PM EDT
Civil Twilight 7:08 AM EDT 7:38 PM EDT
Nautical Twilight 6:39 AM EDT 8:07 PM EDT
Astronomical Twilight 6:09 AM EDT 8:36 PM EDT
Moon 10:48 PM EDT (10/5) 12:27 PM EDT (10/5)
Length of Visible Light 12h 30m
Length of Day
11h 40m
Waning Gibbous, 74% of the Moon is Illuminated
Oct 5
Waning Gibbous
Oct 8
Last Quarter
Oct 15
New
Oct 21
First Quarter
Oct 29
Full

Hourly Weather History & Observations

Time (EDT) Temp. Dew Point Humidity Pressure Visibility Wind Dir Wind Speed Gust Speed Precip Events Conditions
12:53 AM 61.0 °F 57.0 °F 87% 30.22 in 10.0 mi NW 4.6 mph - N/A   Clear
1:53 AM 59.0 °F 55.0 °F 87% 30.20 in 10.0 mi North 3.5 mph - N/A   Clear
2:53 AM 57.9 °F 55.0 °F 90% 30.19 in 10.0 mi WNW 3.5 mph - N/A   Clear
4:53 AM 55.9 °F 54.0 °F 93% 30.18 in 9.0 mi Calm Calm - N/A   Clear
5:53 AM 57.0 °F 54.0 °F 89% 30.19 in 10.0 mi Calm Calm - N/A   Clear
6:53 AM 57.0 °F 54.0 °F 89% 30.19 in 10.0 mi Calm Calm - N/A   Clear
7:53 AM 57.0 °F 54.0 °F 89% 30.21 in 9.0 mi North 3.5 mph - N/A   Clear
8:53 AM 60.1 °F 55.0 °F 83% 30.21 in 10.0 mi Calm Calm - N/A   Clear
9:53 AM 66.0 °F 54.0 °F 65% 30.21 in 10.0 mi NE 4.6 mph - N/A   Clear
10:53 AM 70.0 °F 54.0 °F 57% 30.20 in 10.0 mi ENE 5.8 mph - N/A   Clear
11:53 AM 72.0 °F 55.0 °F 55% 30.18 in 10.0 mi Variable 3.5 mph - N/A   Clear
1:53 PM 75.9 °F 53.1 °F 45% 30.14 in 10.0 mi West 5.8 mph - N/A   Clear
2:53 PM 77.0 °F 54.0 °F 45% 30.10 in 10.0 mi SW 5.8 mph - N/A   Clear
3:53 PM 78.1 °F 50.0 °F 37% 30.08 in 10.0 mi NW 6.9 mph - N/A   Clear
4:53 PM 78.1 °F 52.0 °F 40% 30.06 in 10.0 mi WNW 6.9 mph - N/A   Clear
5:53 PM 77.0 °F 53.1 °F 43% 30.05 in 10.0 mi West 4.6 mph - N/A   Clear
6:53 PM 75.0 °F 55.0 °F 50% 30.04 in 10.0 mi Calm Calm - N/A   Clear
7:53 PM 70.0 °F 55.0 °F 59% 30.04 in 10.0 mi Calm Calm - N/A   Clear
8:53 PM 66.0 °F 57.9 °F 75% 30.06 in 10.0 mi Calm Calm - N/A   Clear
9:53 PM 68.0 °F 55.9 °F 65% 30.05 in 10.0 mi Calm Calm - N/A   Partly Cloudy
10:53 PM 66.0 °F 55.9 °F 70% 30.05 in 10.0 mi Calm Calm - N/A   Clear
11:53 PM 62.1 °F 57.0 °F 84% 30.06 in 10.0 mi Calm Calm - N/A   Clear